COSMOS 2400

Satellite information

Favourite Embed

Satellite Type and Status

PAYLOADIN ORBIT

Key statistics

Satellite COSMOS 2400 at a glance.

Uptime

8113

Days in orbit

Revolutions

≈ 12.5

Per day

Orbit

LEO

Low Earth Orbit

Inclination

82.5

Latest

Satellite identification and parameters

Extended collection of information and parameters for COSMOS 2400.

Object identification

Identified? True

Debris? False

Object name: COSMOS 2400

International designator: 2003-037A

Object number (NORAD): 27868

Object ID (CCSDS): 27868

Country: COMMONWEALTH OF INDEPENDENT STATES (CIS)

Current information (Y/N): Y

RCS size: MEDIUM

Orbital parameters

Period: 115.645 minutes

Inclination: 82.4659 deg

SMA: 7862.837 km

Apoapsis: 1501.595 km

Periapsis: 1467.81 km

RAAN: 112.0154 deg

Eccentricy: 0.0021484

Argument of periapsis: 189.6961 deg

Mean anomaly: 170.3709 deg

Mean motion: 12.4518483 rev/day

Mean motion (dot): 0.00000048 rev/day2

B* drag term: 0.0002665 1/REarth

Two-line elements (TLE)

Creation date: Nov. 2, 2025, 4:46 p.m.

Reference frame: TEME

Reference center: EARTH

Epoch: Nov. 2, 2025, 11:33 a.m. UTC

TLE line 0: 0 COSMOS 2400

TLE line 1: 1 27868U 03037A 25306.48151324 .00000048 00000-0 26650-3 0 9992

TLE line 2: 2 27868 82.4659 112.0154 0021484 189.6961 170.3709 12.45184830 9327

Live tracking on map

Real-time ground track for satellite COSMOS 2400.

In-orbit conjunctions

There are no conjunctions computed for COSMOS 2400, at the moment. Check back to stay up to date, as we update our databases every day.

Go to all conjunctions

Associated space launch

Second generation store-dump military communications satellites

COSMOS 2400 was lifted into orbit during the mission ‘Kosmos-3M | Strela-3 133 & 134’, on board a Kosmos-3M space rocket.

The launch took place on Aug. 19, 2003, 10:50 a.m. from 132/1 (132L).

For more information about the launch, click the button.

Launch to space Kosmos-3M | Strela-3 133 & 134
Kosmos-3M | Strela-3 133 & 134

Agency: N/A

Status: Launch Successful

Launch date: Aug. 19, 2003, 10:50 a.m. UTC

Rocket: Kosmos-3M

Launch pad: 132/1 (132L)

Location: Plesetsk Cosmodrome, Russian Federation

...

Latest news about this satellite

There are no fresh news available about this satellite. Check back as we update our databases every day.


Newsletter sign-up

Weekly statistics, charts and insights to help you stay on top of the space industry.